Location: Castelbiague
(43.0361°N, 0.9246°E)
Time: 09:14:36
(UTC+00:00)

USA 215 - Pass Details

Date: 19 October 2021
Orbit: 1099 x 1109 km, 123.0° (Epoch: 20 November)

Event Time Altitude Azimuth Distance (km) Brightness Sun altitude
Exits shadow 21:03:32 25° 343° (NNW) 2,053 4.9 -42.7°
Drops below altitude 10° 21:06:55 10° 317° (NW) 2,965 6.1 -43.2°
Sets 21:09:42 0° 307° (NW) 3,925 7.0 -43.6°
